Weather History for CWCL - January, 2014

Change the Weather History Date:

Wednesday, January 8, 2014

  Actual Average Record
Temperature  
Mean Temperature 20 °F -  
Max Temperature 25 °F 22 °F 39 °F (2002)
Min Temperature 14 °F 11 °F -9 °F (1998)
Degree Days  
Heating Degree Days 46    
Moisture  
Dew Point 19 °F    
Average Humidity 86    
Maximum Humidity 93    
Minimum Humidity 76    
Precipitation  
Precipitation 0.02 in - - ()
Sea Level Pressure  
Sea Level Pressure 29.67 in    
Wind  
Wind Speed 4 mph ()    
Max Wind Speed 7 mph    
Max Gust Speed -    
Visibility 1.6 miles    
Events      
Averages and records for this station are not official NWS values.
T = Trace of Precipitation, MM = Missing Value Source: Averaged Metar Reports

Daily Weather History Graph

Daily Weather History Graph

Search for Another Location

Airport or City:

Trip Planner

Search our weather history database for the weather conditions in past years. The results will help you decide how hot, cold, wet, or windy it might be!

Date:

Astronomy

Jan. 08, 2014 Rise Set
Actual Time 8:07 AM PST 4:18 PM PST
Civil Twilight 7:28 AM PST 4:57 PM PST
Nautical Twilight 6:46 AM PST 5:39 PM PST
Astronomical Twilight 6:06 AM PST 6:19 PM PST
Moon 11:35 AM PST (1/8) 12:54 AM PST (1/8)
Length of Visible Light 9h 28m
Length of Day
8h 10m
First Quarter, 57% of the Moon is Illuminated
Jan 8
First Quarter
Jan 15
Full
Jan 23
Last Quarter
Jan 30
New
Feb 6
First Quarter

Hourly Weather History & Observations

Time (PST) Temp. Windchill Dew Point Humidity Pressure Visibility Wind Dir Wind Speed Gust Speed Precip Events Conditions
12:00 AM 19.4 °F 10.4 °F 17.6 °F 93% 29.99 in 4.0 mi South 6.9 mph - N/A   Overcast
1:00 AM 20 °F - 17 °F 84% 29.98 in 6 mi South 5.8 mph - -   Overcast
1:00 AM 21.2 °F 13.6 °F 17.6 °F 86% 29.98 in 6.0 mi SSE 5.8 mph - N/A   Overcast
1:07 AM 21.2 °F - 17.6 °F 86% 29.81 in 2.5 mi SE 2.3 mph - N/A   Overcast
1:27 AM 21.2 °F 16.4 °F 17.6 °F 86% 29.81 in 4.0 mi South 3.5 mph - N/A   Overcast
2:00 AM 21.2 °F 16.4 °F 17.6 °F 86% 29.98 in 4.0 mi SSE 3.5 mph - N/A   Overcast
2:41 AM 21.2 °F - 17.6 °F 86% 29.80 in 2.5 mi SSE 2.3 mph - N/A   Overcast
2:52 AM 21.2 °F - 17.6 °F 86% 29.80 in 1.2 mi SSE 2.3 mph - N/A   Overcast
3:00 AM 21.2 °F 16.4 °F 17.6 °F 86% 29.96 in 1.0 mi SSE 3.5 mph - N/A   Overcast
3:15 AM 21.2 °F 16.4 °F 17.6 °F 86% 29.79 in 2.2 mi SSE 3.5 mph - N/A   Overcast
4:00 AM 21 °F - 17 °F 77% 29.95 in 3 mi SSE 4.6 mph - -   Overcast
4:00 AM 21.2 °F 14.9 °F 17.6 °F 86% 29.95 in 3.0 mi South 4.6 mph - N/A   Overcast
4:18 AM 21.2 °F 13.6 °F 17.6 °F 86% 29.77 in 2.5 mi South 5.8 mph - N/A   Overcast
4:43 AM 21.2 °F 14.9 °F 17.6 °F 86% 29.77 in 1.2 mi South 4.6 mph - N/A   Overcast
5:00 AM 21.2 °F 14.9 °F 17.6 °F 86% 29.93 in 1.0 mi South 4.6 mph - N/A   Overcast
5:01 AM 21.2 °F - 17.6 °F 86% 29.76 in 0.8 mi SSE 2.3 mph - N/A   Overcast
5:11 AM 21.2 °F 16.4 °F 17.6 °F 86% 29.76 in 1.6 mi SSE 3.5 mph - N/A   Overcast
5:17 AM 21.2 °F 16.4 °F 17.6 °F 86% 29.76 in 1.2 mi South 3.5 mph - N/A   Overcast
5:25 AM 21.2 °F 16.4 °F 17.6 °F 86% 29.76 in 0.8 mi SSE 3.5 mph - N/A   Overcast
5:35 AM 21.2 °F 14.9 °F 17.6 °F 86% 29.75 in 1.6 mi South 4.6 mph - N/A   Overcast
5:43 AM 21.2 °F 14.9 °F 17.6 °F 86% 29.75 in 1.2 mi South 4.6 mph - N/A   Overcast
6:00 AM 21.2 °F 16.4 °F 17.6 °F 86% 29.90 in 2.2 mi South 3.5 mph - N/A   Overcast
6:13 AM 21.2 °F 14.9 °F 17.6 °F 86% 29.73 in 1.2 mi SSE 4.6 mph - N/A   Overcast
6:41 AM 21.2 °F 16.4 °F 17.6 °F 86% 29.73 in 1.5 mi South 3.5 mph - N/A   Overcast
6:54 AM 21.2 °F - 17.6 °F 86% 29.72 in 1.2 mi Calm Calm - N/A   Overcast
7:00 AM 21 °F - 17 °F 76% 29.89 in 1 mi South 2.3 mph - -   Overcast
7:00 AM 21.2 °F 16.4 °F 17.6 °F 86% 29.89 in 1.5 mi South 3.5 mph - N/A   Overcast
7:02 AM 21.2 °F 16.4 °F 17.6 °F 86% 29.72 in 1.2 mi SSE 3.5 mph - N/A   Overcast
7:11 AM 21.2 °F - 17.6 °F 86% 29.72 in 0.8 mi South 2.3 mph - N/A   Overcast
7:22 AM 21.2 °F 13.6 °F 17.6 °F 86% 29.72 in 1.0 mi South 5.8 mph - N/A   Overcast
7:26 AM 21.2 °F 13.6 °F 17.6 °F 86% 29.72 in 0.8 mi South 5.8 mph - N/A   Overcast
7:37 AM 21.2 °F 13.6 °F 17.6 °F 86% 29.72 in 0.6 mi South 5.8 mph - N/A   Overcast
7:59 AM 21.2 °F 14.9 °F 17.6 °F 86% 29.72 in 1.0 mi South 4.6 mph - N/A   Overcast
8:00 AM 21.2 °F 14.9 °F 17.6 °F 86% 29.88 in 1.5 mi South 4.6 mph - N/A   Overcast
8:04 AM 21.2 °F 14.9 °F 17.6 °F 86% 29.72 in 1.2 mi South 4.6 mph - N/A   Overcast
8:10 AM 21.2 °F 16.4 °F 17.6 °F 86% 29.71 in 0.8 mi South 3.5 mph - N/A   Overcast
8:12 AM 21.2 °F - 17.6 °F 86% 29.72 in 0.6 mi South 2.3 mph - N/A   Overcast
8:33 AM 21.2 °F 14.9 °F 17.6 °F 86% 29.71 in 1.2 mi SSE 4.6 mph - N/A   Overcast
8:42 AM 21.2 °F 14.9 °F 17.6 °F 86% 29.71 in 0.8 mi South 4.6 mph - N/A   Overcast
8:44 AM 21.2 °F 14.9 °F 17.6 °F 86% 29.71 in 0.6 mi South 4.6 mph - N/A   Overcast
9:00 AM 21.2 °F 14.9 °F 17.6 °F 86% 29.88 in 0.6 mi South 4.6 mph - N/A   Overcast
9:18 AM 21.2 °F 13.6 °F 17.6 °F 86% 29.71 in 0.4 mi South 5.8 mph - N/A   Overcast
9:30 AM 21.2 °F 12.6 °F 17.6 °F 86% 29.71 in 0.8 mi SE 6.9 mph - N/A   Overcast
9:33 AM 21.2 °F 14.9 °F 17.6 °F 86% 29.71 in 0.6 mi SSE 4.6 mph - N/A   Overcast
9:42 AM 21.2 °F 13.6 °F 17.6 °F 86% 29.71 in 1.2 mi SSE 5.8 mph - N/A   Overcast
10:00 AM 22 °F - 18 °F 79% 29.86 in 1 mi SSE 4.6 mph - -   Overcast
10:00 AM 23.0 °F 17.0 °F 17.6 °F 80% 29.86 in 1.2 mi SSE 4.6 mph - N/A   Overcast
10:18 AM 23.0 °F 17.0 °F 19.4 °F 86% 29.71 in 3.0 mi South 4.6 mph - N/A   Overcast
10:24 AM 23.0 °F 18.4 °F 19.4 °F 86% 29.71 in 1.8 mi SSE 3.5 mph - N/A   Overcast
10:25 AM 23.0 °F 18.4 °F 19.4 °F 86% 29.71 in 1.2 mi SSE 3.5 mph - N/A   Overcast
10:30 AM 23.0 °F 18.4 °F 19.4 °F 86% 29.71 in 0.8 mi SSE 3.5 mph - N/A   Overcast
10:51 AM 23.0 °F 17.0 °F 19.4 °F 86% 29.70 in 1.8 mi South 4.6 mph - N/A   Overcast
10:58 AM 23.0 °F 18.4 °F 19.4 °F 86% 29.70 in 1.2 mi South 3.5 mph - N/A   Overcast
11:00 AM 23.0 °F 18.4 °F 19.4 °F 86% 29.85 in 0.8 mi South 3.5 mph - N/A   Overcast
11:01 AM 23.0 °F 18.4 °F 19.4 °F 86% 29.70 in 0.6 mi South 3.5 mph - N/A   Overcast
11:13 AM 23.0 °F - 19.4 °F 86% 29.69 in 1.0 mi ESE 2.3 mph - N/A   Overcast
11:39 AM 24.8 °F 19.1 °F 21.2 °F 86% 29.68 in 2.0 mi SE 4.6 mph - N/A   Overcast
11:44 AM 23.0 °F 18.4 °F 21.2 °F 93% 29.68 in 1.2 mi SE 3.5 mph - N/A   Overcast
11:56 AM 24.8 °F 19.1 °F 21.2 °F 86% 29.67 in 3.0 mi SSE 4.6 mph - N/A   Overcast
12:00 PM 24.8 °F 19.1 °F 21.2 °F 86% 29.82 in 3.0 mi South 4.6 mph - N/A   Overcast
12:04 PM 24.8 °F 19.1 °F 21.2 °F 86% 29.67 in 2.2 mi SSE 4.6 mph - N/A   Overcast
12:07 PM 24.8 °F 20.5 °F 21.2 °F 86% 29.67 in 1.2 mi SSE 3.5 mph - N/A   Overcast
12:11 PM 24.8 °F - 21.2 °F 86% 29.66 in 0.8 mi Calm Calm - N/A   Overcast
12:13 PM 24.8 °F - 21.2 °F 86% 29.66 in 0.6 mi South 2.3 mph - N/A   Overcast
12:20 PM 24.8 °F 20.5 °F 21.2 °F 86% 29.66 in 1.0 mi SSE 3.5 mph - N/A   Overcast
12:32 PM 24.8 °F - 21.2 °F 86% 29.65 in 2.5 mi SE 2.3 mph - N/A   Overcast
12:44 PM 23.0 °F - 21.2 °F 93% 29.65 in 3.0 mi Calm Calm - N/A   Overcast
12:45 PM 23.0 °F - 21.2 °F 93% 29.65 in 2.5 mi Calm Calm - N/A   Overcast
1:00 PM 23 °F - 20 °F 83% 29.79 in 2 mi South 3.5 mph - -   Overcast
1:00 PM 23.0 °F - 19.4 °F 86% 29.79 in 1.8 mi South 2.3 mph - N/A   Overcast
1:02 PM 23.0 °F 18.4 °F 19.4 °F 86% 29.64 in 1.2 mi SSE 3.5 mph - N/A   Overcast
1:31 PM 23.0 °F 17.0 °F 19.4 °F 86% 29.63 in 3.0 mi South 4.6 mph - N/A   Overcast
1:32 PM 23.0 °F 17.0 °F 19.4 °F 86% 29.63 in 2.5 mi South 4.6 mph - N/A   Overcast
1:36 PM 23.0 °F 15.8 °F 19.4 °F 86% 29.63 in 1.2 mi South 5.8 mph - N/A   Overcast
2:00 PM 23.0 °F - 19.4 °F 86% 29.77 in 2.0 mi South 2.3 mph - N/A   Overcast
2:11 PM 23.0 °F 18.4 °F 19.4 °F 86% 29.61 in 3.0 mi South 3.5 mph - N/A   Overcast
2:14 PM 23.0 °F - 19.4 °F 86% 29.61 in 2.5 mi South 2.3 mph - N/A   Overcast
2:28 PM 23.0 °F 17.0 °F 19.4 °F 86% 29.61 in 4.0 mi South 4.6 mph - N/A   Overcast
2:47 PM 23.0 °F 17.0 °F 19.4 °F 86% 29.60 in 2.5 mi SSW 4.6 mph - N/A   Overcast
3:00 PM 23.0 °F 17.0 °F 19.4 °F 86% 29.74 in 2.5 mi SSW 4.6 mph - N/A   Overcast
3:11 PM 23.0 °F 17.0 °F 19.4 °F 86% 29.59 in 5.0 mi SSW 4.6 mph - N/A   Overcast
3:36 PM 23.0 °F - 19.4 °F 86% 29.59 in 2.2 mi SSW 2.3 mph - N/A   Overcast
5:21 PM 23.0 °F 17.0 °F 19.4 °F 86% 29.55 in 2.0 mi SSW 4.6 mph - N/A   Overcast
5:24 PM 24.8 °F 20.5 °F 19.4 °F 80% 29.55 in 1.2 mi SSW 3.5 mph - N/A   Overcast
5:40 PM 24.8 °F 20.5 °F 19.4 °F 80% 29.55 in 1.6 mi SSW 3.5 mph - N/A   Overcast
5:44 PM 24.8 °F 20.5 °F 19.4 °F 80% 29.54 in 1.2 mi South 3.5 mph - N/A   Overcast
5:48 PM 24.8 °F - 19.4 °F 80% 29.54 in 0.8 mi Calm Calm - N/A   Overcast
5:50 PM 24.8 °F - 19.4 °F 80% 29.54 in 0.6 mi South 2.3 mph - N/A   Overcast
5:59 PM 24.8 °F 20.5 °F 21.2 °F 86% 29.53 in 1.0 mi SW 3.5 mph - N/A   Overcast
6:00 PM 24.8 °F - 21.2 °F 86% 29.68 in 1.0 mi SW 2.3 mph - N/A   Overcast
6:20 PM 24.8 °F - 21.2 °F 86% 29.52 in 0.8 mi SSW 2.3 mph - N/A   Overcast
6:21 PM 24.8 °F - 21.2 °F 86% 29.52 in 0.6 mi SSW 2.3 mph - N/A   Overcast
6:25 PM 24.8 °F 20.5 °F 21.2 °F 86% 29.52 in 0.4 mi South 3.5 mph - N/A   Overcast
6:40 PM 24.8 °F 19.1 °F 21.2 °F 86% 29.52 in 0.8 mi SSW 4.6 mph - N/A   Overcast
6:45 PM 24.8 °F 19.1 °F 21.2 °F 86% 29.51 in 0.6 mi South 4.6 mph - N/A   Overcast
7:00 PM 24 °F - 21 °F 81% 29.66 in 1 mi South 3.5 mph - -   Overcast
7:00 PM 24.8 °F 20.5 °F 21.2 °F 86% 29.66 in 0.8 mi South 3.5 mph - N/A   Overcast
7:03 PM 24.8 °F - 21.2 °F 86% 29.51 in 0.6 mi South 2.3 mph - N/A   Overcast
7:17 PM 24.8 °F - 21.2 °F 86% 29.51 in 1.2 mi SW 2.3 mph - N/A   Overcast
7:23 PM 24.8 °F 20.5 °F 21.2 °F 86% 29.51 in 3.0 mi SW 3.5 mph - N/A   Overcast
7:26 PM 24.8 °F 20.5 °F 21.2 °F 86% 29.50 in 1.6 mi SSW 3.5 mph - N/A   Overcast
7:27 PM 24.8 °F 20.5 °F 21.2 °F 86% 29.50 in 1.2 mi SSW 3.5 mph - N/A   Overcast
7:29 PM 24.8 °F - 21.2 °F 86% 29.50 in 0.8 mi South 2.3 mph - N/A   Overcast
7:38 PM 24.8 °F - 21.2 °F 86% 29.50 in 1.5 mi Calm Calm - N/A   Overcast
7:42 PM 24.8 °F 20.5 °F 21.2 °F 86% 29.50 in 1.2 mi South 3.5 mph - N/A   Overcast
7:44 PM 24.8 °F 20.5 °F 21.2 °F 86% 29.50 in 0.8 mi South 3.5 mph - N/A   Overcast
7:46 PM 24.8 °F - 21.2 °F 86% 29.50 in 0.6 mi South 2.3 mph - N/A   Overcast
8:00 PM 24.8 °F 20.5 °F 21.2 °F 86% 29.64 in 0.6 mi South 3.5 mph - N/A   Overcast
8:30 PM 24.8 °F - 21.2 °F 86% 29.49 in 1.0 mi SW 2.3 mph - N/A   Overcast
8:43 PM 24.8 °F - 21.2 °F 86% 29.49 in 4.0 mi Calm Calm - N/A   Overcast
8:53 PM 24.8 °F 20.5 °F 21.2 °F 86% 29.49 in 1.8 mi South 3.5 mph - N/A   Overcast
8:54 PM 24.8 °F - 21.2 °F 86% 29.49 in 1.2 mi South 2.3 mph - N/A   Overcast
8:55 PM 24.8 °F - 21.2 °F 86% 29.49 in 0.8 mi South 2.3 mph - N/A   Overcast
8:58 PM 24.8 °F - 21.2 °F 86% 29.49 in 0.6 mi SSW 2.3 mph - N/A   Overcast
9:00 PM 24.8 °F - 21.2 °F 86% 29.63 in 0.6 mi Calm Calm - N/A   Overcast
9:05 PM 24.8 °F - 21.2 °F 86% 29.49 in 1.0 mi SW 2.3 mph - N/A   Overcast
9:17 PM 24.8 °F - 21.2 °F 86% 29.49 in 0.8 mi Calm Calm - N/A   Overcast
9:26 PM 24.8 °F - 21.2 °F 86% 29.49 in 2.2 mi SSW 2.3 mph - N/A   Overcast
10:00 PM 25 °F - 22 °F 81% 29.62 in 4 mi SSW 2.3 mph - -   Overcast
10:00 PM 24.8 °F - 21.2 °F 86% 29.62 in 4.0 mi Calm Calm - N/A   Overcast
10:13 PM 24.8 °F 19.1 °F 21.2 °F 86% 29.48 in 2.2 mi South 4.6 mph - N/A   Overcast
10:16 PM 24.8 °F 19.1 °F 21.2 °F 86% 29.48 in 1.2 mi South 4.6 mph - N/A   Overcast
10:29 PM 24.8 °F 19.1 °F 21.2 °F 86% 29.49 in 0.8 mi South 4.6 mph - N/A   Overcast
10:30 PM 24.8 °F 19.1 °F 21.2 °F 86% 29.49 in 0.6 mi South 4.6 mph - N/A   Overcast
10:44 PM 24.8 °F 19.1 °F 21.2 °F 86% 29.49 in 1.0 mi SSE 4.6 mph - N/A   Overcast
11:00 PM 24.8 °F 20.5 °F 21.2 °F 86% 29.62 in 1.8 mi SSW 3.5 mph - N/A   Overcast
11:02 PM 24.8 °F 20.5 °F 21.2 °F 86% 29.49 in 1.2 mi South 3.5 mph - N/A   Overcast
11:07 PM 24.8 °F 19.1 °F 21.2 °F 86% 29.49 in 0.8 mi South 4.6 mph - N/A   Overcast
11:09 PM 24.8 °F 20.5 °F 21.2 °F 86% 29.49 in 0.6 mi South 3.5 mph - N/A   Overcast
11:21 PM 24.8 °F 20.5 °F 21.2 °F 86% 29.49 in 0.4 mi South 3.5 mph - N/A   Overcast